TimeCST,TemperatureF,Dew PointF,Humidity,Sea Level PressureIn,VisibilityMPH,Wind Direction,Wind SpeedMPH,Gust SpeedMPH,PrecipitationIn,Events,Conditions,WindDirDegrees,DateUTC
12:53 AM,53.1,45.0,74,30.19,10.0,SSE,3.5,-,N/A,,Mostly Cloudy,150,2013-02-02 06:53:00
1:53 AM,53.1,43.0,69,30.19,10.0,Calm,Calm,-,N/A,,Overcast,0,2013-02-02 07:53:00
2:53 AM,53.6,44.6,72,30.18,10.0,Calm,Calm,-,N/A,,Mostly Cloudy,0,2013-02-02 08:53:00
3:53 AM,53.1,44.1,71,30.17,10.0,North,3.5,-,N/A,,Mostly Cloudy,10,2013-02-02 09:53:00
4:53 AM,52.0,43.0,71,30.17,10.0,Calm,Calm,-,N/A,,Clear,0,2013-02-02 10:53:00
5:53 AM,51.1,42.1,71,30.17,10.0,Calm,Calm,-,N/A,,Clear,0,2013-02-02 11:53:00
6:53 AM,50.0,43.0,77,30.19,10.0,Calm,Calm,-,N/A,,Clear,0,2013-02-02 12:53:00
7:37 AM,50.0,44.6,82,30.21,10.0,Calm,Calm,-,N/A,,Mostly Cloudy,0,2013-02-02 13:37:00
7:53 AM,54.0,46.9,77,30.21,10.0,Calm,Calm,-,N/A,,Mostly Cloudy,0,2013-02-02 13:53:00
8:19 AM,57.2,48.2,72,30.22,10.0,Calm,Calm,-,N/A,,Scattered Clouds,0,2013-02-02 14:19:00
8:53 AM,61.0,52.0,72,30.22,10.0,Calm,Calm,-,N/A,,Partly Cloudy,0,2013-02-02 14:53:00
9:53 AM,66.9,54.0,63,30.24,10.0,SE,4.6,-,N/A,,Overcast,130,2013-02-02 15:53:00
10:33 AM,69.8,55.4,60,30.25,10.0,SSE,4.6,-,N/A,,Mostly Cloudy,160,2013-02-02 16:33:00
10:53 AM,71.1,55.9,59,30.23,10.0,SSW,5.8,-,N/A,,Scattered Clouds,200,2013-02-02 16:53:00
11:53 AM,73.9,57.0,55,30.21,10.0,SSW,9.2,-,N/A,,Partly Cloudy,210,2013-02-02 17:53:00
12:53 PM,75.0,55.0,50,30.19,10.0,SW,8.1,-,N/A,,Scattered Clouds,220,2013-02-02 18:53:00
1:53 PM,75.9,54.0,46,30.17,10.0,West,4.6,-,N/A,,Mostly Cloudy,260,2013-02-02 19:53:00
2:53 PM,77.0,54.0,45,30.15,10.0,SW,3.5,-,N/A,,Clear,230,2013-02-02 20:53:00
3:53 PM,79.0,53.1,40,30.14,10.0,Calm,Calm,-,N/A,,Scattered Clouds,0,2013-02-02 21:53:00
4:53 PM,79.0,53.1,40,30.13,10.0,SSE,3.5,-,N/A,,Scattered Clouds,150,2013-02-02 22:53:00
5:53 PM,73.9,55.9,53,30.15,10.0,SE,15.0,-,N/A,,Mostly Cloudy,140,2013-02-02 23:53:00
6:53 PM,69.1,55.9,63,30.18,10.0,SE,11.5,-,N/A,,Clear,140,2013-02-03 00:53:00
7:53 PM,64.9,55.0,70,30.20,10.0,SE,8.1,-,N/A,,Clear,140,2013-02-03 01:53:00
8:53 PM,61.0,54.0,78,30.22,10.0,SE,3.5,-,N/A,,Clear,130,2013-02-03 02:53:00
9:53 PM,60.1,53.1,78,30.24,10.0,Calm,Calm,-,N/A,,Clear,0,2013-02-03 03:53:00
10:53 PM,60.1,53.1,78,30.24,10.0,Calm,Calm,-,N/A,,Clear,0,2013-02-03 04:53:00
11:53 PM,54.0,48.9,83,30.24,10.0,Calm,Calm,-,N/A,,Clear,0,2013-02-03 05:53:00